Facebook Twitter YouTube


Racing Home >Top Performers > trot

TOP PERFORMERS IN 2022

Trotters

Click on a link below to see the top 50 Trotters in that category. Only North American racing statistics are shown, with all earnings expressed in US currency.

  All Ages Earnings Wins Record
  2-Year-Olds Earnings Wins Record
  3-Year-Olds Earnings Wins Record
  Aged Earnings Wins Record

3-year-old Trotters by Record - 2022

Click on a column heading to sort these 50 rows only. To see a report of the top horses using other categories, please select a link at the top of the page.

Horse Name Age Sex Gait Sts 1st 2nd 3rd Earnings Record Size
REBUFF 3 H T 9 5 1 2 $518,395 1:49.4 m
JIGGY JOG S 3 M T 13 8 3 0 $922,265 1:50.0 m
FASHION SCHOONER 3 M T 13 8 3 1 $684,903 1:50.1 m
DOUBLE DECEIVER 3 G T 14 7 4 1 $525,515 1:50.2 m
JOVIALITY S 3 M T 16 11 2 2 $1,083,209 1:50.2 m
JUSTICE 3 H T 12 6 1 0 $286,714 1:50.2 m
KING OF THE NORTH 3 H T 15 3 3 3 $590,646 1:50.3 s
BRANDED BY LINDY 3 H T 14 2 2 3 $330,890 1:50.3 m
PERICULUM 3 H T 14 2 1 1 $308,733 1:50.3 m
DATE NIGHT 3 M T 12 1 5 0 $303,827 1:50.4 m
ETERNAL LEE 3 M T 14 8 1 0 $241,075 1:51.0 m
SLAY 3 H T 16 5 2 3 $585,107 1:51.0 m
THERESNOLIMIT S 3 H T 7 2 1 1 $22,007 1:51.0 m
LILBITALEXIS 3 M T 13 1 3 1 $38,483 1:51.1 m
MANON 3 M T 13 6 1 1 $334,590 1:51.1 m
RAISED BY LINDY 3 M T 12 4 1 3 $359,323 1:51.1 m
SELFIE QUEEN 3 M T 11 2 1 3 $249,092 1:51.1 m
S I P 3 H T 20 4 3 4 $178,901 1:51.2 h
B A SUPERHERO 3 H T 16 4 2 2 $137,163 1:51.2 m
GOLDEN WALL AS 3 H T 17 4 4 4 $183,188 1:51.2 m
IWON'T BACKDOWN AS 3 G T 15 3 2 4 $145,420 1:51.2 m
PEYTON HANOVER 3 M T 15 4 1 0 $157,309 1:51.2 m
BAPTISM 3 M T 10 4 0 1 $87,060 1:51.3 m
COOL PAPA BELL 3 G T 14 6 1 3 $892,763 1:51.3 m
JUST FOR TRIX 3 H T 18 7 0 3 $128,365 1:51.3 m
PRETENDER 3 H T 15 4 3 4 $573,525 1:51.3 m
ROBERTSIN 3 G T 12 3 2 1 $80,370 1:51.3 m
CASH INFUSION 3 M T 19 4 3 3 $191,558 1:51.4 s
FUNKY WIGGLE 3 M T 16 9 1 1 $131,235 1:51.4 m
LOOKS LIKE MONI 3 G T 16 2 2 2 $106,333 1:51.4 m
SAFFRON GIRL 3 M T 21 9 3 3 $98,751 1:51.4 m
UNLEASHED KEMP 3 M T 20 5 2 2 $77,342 1:51.4 m
TESTING TESTING 3 H T 11 1 1 1 $58,090 1:52.0 s
BLUE BAYOU DEO 3 M T 19 5 2 3 $88,536 1:52.0 m
MON CHEVAL 3 M T 16 4 2 2 $219,378 1:52.0 m
MORE THAN EVER 3 M T 15 4 2 2 $102,571 1:52.0 m
PRIMADONNA DEO 3 M T 15 3 1 2 $114,286 1:52.0 m
BARE MY SOUL 3 M T 15 2 3 3 $245,042 1:52.1 s
SWAN CAPTAIN 3 G T 18 4 4 2 $132,475 1:52.1 s
FINN PALEMA 3 H T 11 5 1 2 $67,122 1:52.1 m
BLUEBIRD DOVE 3 M T 18 8 2 4 $226,306 1:52.2 h
LONGSHOT 3 G T 16 9 2 1 $306,974 1:52.2 f
FAST AS THE WIND 3 H T 18 2 4 3 $264,583 1:52.2 s
PONDA ADVENTURE 3 G T 18 14 3 0 $413,569 1:52.2 s
TEMPORAL HANOVER 3 H T 13 4 6 1 $764,500 1:52.2 s
VENERABLE 3 M T 12 3 2 1 $147,646 1:52.2 s
AGGIORNAMENTO 3 G T 7 4 2 1 $47,750 1:52.2 m
EZRA 3 G T 16 5 3 3 $97,865 1:52.2 m
GRACELYN HANOVER 3 M T 19 2 2 2 $61,872 1:52.2 m
MISSWALNER FASHION 3 M T 12 2 2 3 $166,864 1:52.2 m
MOLOTOV COCKTAIL 3 H T 10 2 4 2 $244,734 1:52.2 m
WARRAWEE XENIA 3 M T 17 9 1 2 $194,638 1:52.2 m
Updated: 11/29/2022

Looking for even more information? Pathway has expanded reports on every harness racing participant in North America, as well as online industry leaders statistics updated daily. Set up your free USTA Account at myaccount.ustrotting.com which will give you access to Pathway and the expanded Statistics reporting area. For more information on Pathway, please visit pathway.ustrotting.com.

Comments or questions on these reports, please contact webmaster@ustrotting.com.